AEA7020 LEIB-LEMD

Flight info

Callsign AEA7020
Flight time N/A
Altitude 31000
Route XOSTA M134 VLC N733 PRADO
Aircraft B738/M-V/N

Departure

Time N/A
Airport Ibiza Airport (LEIB)

Arrival

Time 2026-05-05 16:41
Airport Adolfo Suárez Madrid–Barajas Airport (LEMD)
Time Latitude Longitude Altitude Speed Heading
2026-05-05 16:02 39.16882 0.62002 26064 ft 386 kts 285°
2026-05-05 16:02 39.17839 0.58747 26807 ft 388 kts 285°
2026-05-05 16:03 39.18787 0.55514 27539 ft 389 kts 285°
2026-05-05 16:03 39.19737 0.52265 28269 ft 390 kts 284°
2026-05-05 16:03 39.20689 0.49006 29000 ft 390 kts 284°
2026-05-05 16:03 39.21640 0.45748 29728 ft 389 kts 284°
2026-05-05 16:04 39.22582 0.42515 30452 ft 387 kts 284°
2026-05-05 16:04 39.23525 0.39264 30821 ft 395 kts 284°
2026-05-05 16:04 39.24501 0.35890 30888 ft 409 kts 284°
2026-05-05 16:04 39.25510 0.32402 30901 ft 423 kts 284°
2026-05-05 16:05 39.26561 0.28785 30885 ft 425 kts 284°
2026-05-05 16:05 39.28603 0.21737 30884 ft 421 kts 284°
2026-05-05 16:06 39.30636 0.14688 30886 ft 421 kts 284°
2026-05-05 16:06 39.32675 0.07597 30884 ft 421 kts 284°
2026-05-05 16:07 39.34703 0.00528 30881 ft 421 kts 284°
2026-05-05 16:07 39.36730 -0.06557 30882 ft 421 kts 284°
2026-05-05 16:08 39.38755 -0.13653 30882 ft 421 kts 284°
2026-05-05 16:08 39.40770 -0.20736 30881 ft 421 kts 284°
2026-05-05 16:09 39.42789 -0.27850 30881 ft 421 kts 284°
2026-05-05 16:09 39.44805 -0.34972 30880 ft 421 kts 284°
2026-05-05 16:10 39.46806 -0.42066 30883 ft 422 kts 284°
2026-05-05 16:10 39.48988 -0.49127 30846 ft 429 kts 292°
2026-05-05 16:11 39.51926 -0.55875 30882 ft 430 kts 293°
2026-05-05 16:12 39.57849 -0.69288 30888 ft 430 kts 292°
2026-05-05 16:13 39.65248 -0.86109 30888 ft 430 kts 292°
2026-05-05 16:13 39.68191 -0.92827 30887 ft 430 kts 292°
2026-05-05 16:14 39.73978 -1.06069 30886 ft 407 kts 292°
2026-05-05 16:15 39.79538 -1.18861 30883 ft 405 kts 292°
2026-05-05 16:16 39.85049 -1.31583 30884 ft 405 kts 292°
2026-05-05 16:17 39.87799 -1.37954 30203 ft 407 kts 293°
2026-05-05 16:17 39.89177 -1.41149 29733 ft 402 kts 293°
2026-05-05 16:18 39.91880 -1.47423 28812 ft 396 kts 293°
2026-05-05 16:18 39.93216 -1.50527 28306 ft 388 kts 293°
2026-05-05 16:18 39.95784 -1.56505 27256 ft 371 kts 293°
2026-05-05 16:19 39.97021 -1.59388 26700 ft 365 kts 293°
2026-05-05 16:19 39.98242 -1.62241 26132 ft 359 kts 293°
2026-05-05 16:19 40.00423 -1.67343 25120 ft 353 kts 292°
2026-05-05 16:20 40.02765 -1.72826 24169 ft 351 kts 292°
2026-05-05 16:20 40.05127 -1.78366 23291 ft 350 kts 293°
2026-05-05 16:21 40.07477 -1.83886 22404 ft 347 kts 293°
2026-05-05 16:22 40.10966 -1.92103 21045 ft 343 kts 293°
2026-05-05 16:22 40.13336 -1.97455 20046 ft 343 kts 298°
2026-05-05 16:23 40.15928 -2.02605 19111 ft 339 kts 298°
2026-05-05 16:23 40.17211 -2.05174 18637 ft 337 kts 298°
2026-05-05 16:23 40.19741 -2.10290 17682 ft 334 kts 298°
2026-05-05 16:24 40.20990 -2.12841 17193 ft 333 kts 298°
2026-05-05 16:24 40.22088 -2.15470 16630 ft 326 kts 284°
2026-05-05 16:24 40.22569 -2.21216 15643 ft 313 kts 271°
2026-05-05 16:25 40.22691 -2.24018 15187 ft 309 kts 271°
2026-05-05 16:25 40.22893 -2.29541 14273 ft 302 kts 270°
2026-05-05 16:25 40.22987 -2.32285 13814 ft 300 kts 270°
2026-05-05 16:26 40.23167 -2.37704 12909 ft 299 kts 271°
2026-05-05 16:26 40.23343 -2.43108 11993 ft 297 kts 271°
2026-05-05 16:27 40.23429 -2.45792 11511 ft 296 kts 271°
2026-05-05 16:27 40.23514 -2.48470 11037 ft 294 kts 271°
2026-05-05 16:27 40.23600 -2.51128 10585 ft 292 kts 271°
2026-05-05 16:27 40.23684 -2.53799 10127 ft 291 kts 271°
2026-05-05 16:28 40.23764 -2.56420 9675 ft 289 kts 271°
2026-05-05 16:28 40.23843 -2.59013 9227 ft 288 kts 272°
2026-05-05 16:28 40.23924 -2.61621 8771 ft 286 kts 272°
2026-05-05 16:28 40.24005 -2.64229 8362 ft 283 kts 272°
2026-05-05 16:29 40.24084 -2.66786 8027 ft 278 kts 271°
2026-05-05 16:29 40.24159 -2.69279 8014 ft 274 kts 271°
2026-05-05 16:29 40.24233 -2.71782 8015 ft 279 kts 271°
2026-05-05 16:29 40.24313 -2.74345 8015 ft 282 kts 270°
2026-05-05 16:30 40.24379 -2.76883 8012 ft 280 kts 271°
2026-05-05 16:30 40.24458 -2.79438 8012 ft 280 kts 271°
2026-05-05 16:30 40.24532 -2.81998 8012 ft 280 kts 271°
2026-05-05 16:30 40.24609 -2.84531 8013 ft 281 kts 271°
2026-05-05 16:31 40.24678 -2.87091 8012 ft 280 kts 271°
2026-05-05 16:31 40.24752 -2.89634 8012 ft 281 kts 271°
2026-05-05 16:31 40.24820 -2.92171 8004 ft 275 kts 272°
2026-05-05 16:31 40.24888 -2.94635 7992 ft 268 kts 272°
2026-05-05 16:32 40.24956 -2.97081 7998 ft 269 kts 272°
2026-05-05 16:32 40.25024 -2.99515 8018 ft 271 kts 272°
2026-05-05 16:32 40.25093 -3.01965 8018 ft 272 kts 272°
2026-05-05 16:32 40.25161 -3.04449 8019 ft 272 kts 272°
2026-05-05 16:33 40.25224 -3.06942 8021 ft 273 kts 273°
2026-05-05 16:33 40.25293 -3.09409 8022 ft 273 kts 272°
2026-05-05 16:33 40.25360 -3.11913 8022 ft 273 kts 272°
2026-05-05 16:33 40.25425 -3.14402 8022 ft 274 kts 274°
2026-05-05 16:34 40.25687 -3.16890 7683 ft 279 kts 279°
2026-05-05 16:34 40.25997 -3.19391 7252 ft 279 kts 279°
2026-05-05 16:34 40.26310 -3.21865 6831 ft 278 kts 279°
2026-05-05 16:34 40.26623 -3.24340 6536 ft 272 kts 280°
2026-05-05 16:35 40.26910 -3.26766 6277 ft 266 kts 279°
2026-05-05 16:35 40.27191 -3.29121 6026 ft 260 kts 279°
2026-05-05 16:35 40.27501 -3.31403 5981 ft 249 kts 288°
2026-05-05 16:35 40.28444 -3.33260 5994 ft 249 kts 310°
2026-05-05 16:36 40.29621 -3.34945 6010 ft 254 kts 313°
2026-05-05 16:36 40.30859 -3.36639 5921 ft 255 kts 313°
2026-05-05 16:36 40.32124 -3.38271 5740 ft 256 kts 321°
2026-05-05 16:36 40.33491 -3.39609 5610 ft 236 kts 322°
2026-05-05 16:37 40.34722 -3.40831 5374 ft 212 kts 321°
2026-05-05 16:37 40.35817 -3.42020 4926 ft 199 kts 320°
2026-05-05 16:37 40.36868 -3.43093 4531 ft 187 kts 321°
2026-05-05 16:37 40.37874 -3.44100 4173 ft 175 kts 321°
2026-05-05 16:38 40.38806 -3.45032 3934 ft 161 kts 321°
2026-05-05 16:38 40.39666 -3.45891 3784 ft 156 kts 320°
2026-05-05 16:38 40.40533 -3.46756 3609 ft 153 kts 320°
2026-05-05 16:38 40.41094 -3.47300 3457 ft 149 kts 321°
2026-05-05 16:39 40.42162 -3.48349 3210 ft 142 kts 319°
2026-05-05 16:39 40.42938 -3.49142 3037 ft 139 kts 320°
2026-05-05 16:39 40.43702 -3.49899 2853 ft 136 kts 320°
2026-05-05 16:39 40.44433 -3.50668 2671 ft 135 kts 321°
2026-05-05 16:40 40.45172 -3.51396 2524 ft 133 kts 320°
2026-05-05 16:40 40.45904 -3.52147 2341 ft 133 kts 320°
2026-05-05 16:40 40.46621 -3.52880 2168 ft 131 kts 323°
2026-05-05 16:40 40.47336 -3.53595 2025 ft 126 kts 322°
2026-05-05 16:41 40.48013 -3.54285 1960 ft 112 kts 317°
2026-05-05 16:41 40.48488 -3.54773 1960 ft 76 kts 323°
2026-05-05 16:41 40.48786 -3.55166 1959 ft 30 kts 290°
2026-05-05 16:41 40.48821 -3.55278 1959 ft 4 kts 288°
2026-05-05 16:42 40.48827 -3.55300 1959 ft 2 kts 291°
2026-05-05 16:42 40.48847 -3.55357 1959 ft 10 kts 295°
2026-05-05 16:42 40.48880 -3.55434 1959 ft 8 kts 309°
2026-05-05 16:42 40.48931 -3.55499 1959 ft 13 kts 323°
2026-05-05 16:43 40.49032 -3.55599 1959 ft 23 kts 324°
2026-05-05 16:43 40.49174 -3.55744 1959 ft 27 kts 321°
2026-05-05 16:43 40.49299 -3.55925 1959 ft 25 kts 276°
2026-05-05 16:43 40.49278 -3.56124 1959 ft 20 kts 210°
2026-05-05 16:44 40.49157 -3.56135 1959 ft 20 kts 182°
2026-05-05 16:44 40.48987 -3.56135 1959 ft 28 kts 180°
2026-05-05 16:44 40.48812 -3.56130 1959 ft 26 kts 194°
2026-05-05 16:44 40.48765 -3.56304 1959 ft 23 kts 269°
2026-05-05 16:45 40.48763 -3.56552 1959 ft 30 kts 273°
2026-05-05 16:45 40.48762 -3.56798 1959 ft 25 kts 269°
2026-05-05 16:45 40.48761 -3.57062 1959 ft 32 kts 271°
2026-05-05 16:45 40.48763 -3.57384 1959 ft 36 kts 268°
2026-05-05 16:46 40.48763 -3.57729 1959 ft 35 kts 269°
2026-05-05 16:46 40.48701 -3.57930 1959 ft 19 kts 178°
2026-05-05 16:46 40.48552 -3.57882 1959 ft 26 kts 154°
2026-05-05 16:46 40.48362 -3.57735 1959 ft 33 kts 142°
2026-05-05 16:47 40.48174 -3.57543 1959 ft 35 kts 140°
2026-05-05 16:47 40.47973 -3.57340 1959 ft 37 kts 140°
2026-05-05 16:47 40.47769 -3.57127 1959 ft 36 kts 142°
2026-05-05 16:47 40.47658 -3.57016 1959 ft 15 kts 143°
2026-05-05 16:48 40.47531 -3.56890 1959 ft 29 kts 137°
2026-05-05 16:48 40.47393 -3.56779 1959 ft 15 kts 203°
2026-05-05 16:48 40.47319 -3.56880 1959 ft 7 kts 258°
2026-05-05 16:48 40.47339 -3.56953 1959 ft 5 kts 253°
2026-05-05 16:49 40.47320 -3.57010 1959 ft 2 kts 245°
2026-05-05 16:49 40.47317 -3.57017 1959 ft 0 kts 244°
2026-05-05 16:49 40.47317 -3.57019 1959 ft 0 kts 245°